owner,sensor,date,latitude,longitude,vertical_datum,sea_water_temperature,qcFlag 
WAVCIS,ioos:station:WAVCIS:CSI03:1,2016-05-01T00:00:00Z,29.4412,-92.0613,10.0,-8.7,11144222 
WAVCIS,ioos:station:WAVCIS:CSI03:1,2016-05-01T01:00:00Z,29.4412,-92.0613,10.0,-12.45,11144222 
WAVCIS,ioos:station:WAVCIS:CSI03:1,2016-05-01T02:00:00Z,29.4412,-92.0613,10.0,-15.14,11144222 
WAVCIS,ioos:station:WAVCIS:CSI03:1,2016-05-01T03:00:00Z,29.4412,-92.0613,10.0,-18.23,11144222 
WAVCIS,ioos:station:WAVCIS:CSI03:1,2016-05-01T04:00:00Z,29.4412,-92.0613,10.0,-18.23,11144222 
WAVCIS,ioos:station:WAVCIS:CSI03:1,2016-05-01T05:00:00Z,29.4412,-92.0613,10.0,-18.38,11144222 
WAVCIS,ioos:station:WAVCIS:CSI03:1,2016-05-01T06:00:00Z,29.4412,-92.0613,10.0,-18.45,11144222 
WAVCIS,ioos:station:WAVCIS:CSI03:1,2016-05-01T07:00:00Z,29.4412,-92.0613,10.0,-18.76,11144222 
WAVCIS,ioos:station:WAVCIS:CSI03:1,2016-05-01T08:00:00Z,29.4412,-92.0613,10.0,-19.14,11144222 
WAVCIS,ioos:station:WAVCIS:CSI03:1,2016-05-01T09:00:00Z,29.4412,-92.0613,10.0,-19.21,11144222 
WAVCIS,ioos:station:WAVCIS:CSI03:1,2016-05-01T10:00:00Z,29.4412,-92.0613,10.0,-19.3,11144222 
WAVCIS,ioos:station:WAVCIS:CSI03:1,2016-05-01T11:00:00Z,29.4412,-92.0613,10.0,-19.49,11144222 
WAVCIS,ioos:station:WAVCIS:CSI03:1,2016-05-01T12:00:00Z,29.4412,-92.0613,10.0,-19.56,11144222 
WAVCIS,ioos:station:WAVCIS:CSI03:1,2016-05-01T13:00:00Z,29.4412,-92.0613,10.0,-19.72,11144222 
WAVCIS,ioos:station:WAVCIS:CSI03:1,2016-05-01T14:00:00Z,29.4412,-92.0613,10.0,-19.89,11144222 
WAVCIS,ioos:station:WAVCIS:CSI03:1,2016-05-01T15:00:00Z,29.4412,-92.0613,10.0,-20.01,11144222 
WAVCIS,ioos:station:WAVCIS:CSI03:1,2016-05-01T16:00:00Z,29.4412,-92.0613,10.0,-20.35,11144222 
WAVCIS,ioos:station:WAVCIS:CSI03:1,2016-05-01T17:00:00Z,29.4412,-92.0613,10.0,-20.61,11144222 
WAVCIS,ioos:station:WAVCIS:CSI03:1,2016-05-01T18:00:00Z,29.4412,-92.0613,10.0,-20.41,11144222 
WAVCIS,ioos:station:WAVCIS:CSI03:1,2016-05-01T19:00:00Z,29.4412,-92.0613,10.0,-20.47,11144222 
WAVCIS,ioos:station:WAVCIS:CSI03:1,2016-05-01T20:00:00Z,29.4412,-92.0613,10.0,-20.27,11144222 
WAVCIS,ioos:station:WAVCIS:CSI03:1,2016-05-01T21:00:00Z,29.4412,-92.0613,10.0,-20.46,11144222 
WAVCIS,ioos:station:WAVCIS:CSI03:1,2016-05-01T22:00:00Z,29.4412,-92.0613,10.0,-20.33,11144222 
WAVCIS,ioos:station:WAVCIS:CSI03:1,2016-05-01T23:00:00Z,29.4412,-92.0613,10.0,-20.07,11144222 
WAVCIS,ioos:station:WAVCIS:CSI03:1,2016-05-02T00:00:00Z,29.4412,-92.0613,10.0,-20.06,11144222 
WAVCIS,ioos:station:WAVCIS:CSI03:1,2016-05-02T01:00:00Z,29.4412,-92.0613,10.0,-8.86,11144222 
WAVCIS,ioos:station:WAVCIS:CSI03:1,2016-05-02T02:00:00Z,29.4412,-92.0613,10.0,-9.23,11144222 
WAVCIS,ioos:station:WAVCIS:CSI03:1,2016-05-02T03:00:00Z,29.4412,-92.0613,10.0,-9.21,11144222 
WAVCIS,ioos:station:WAVCIS:CSI03:1,2016-05-02T04:00:00Z,29.4412,-92.0613,10.0,-9.09,11144222 
WAVCIS,ioos:station:WAVCIS:CSI03:1,2016-05-02T05:00:00Z,29.4412,-92.0613,10.0,-9.38,11144222 
WAVCIS,ioos:station:WAVCIS:CSI03:1,2016-05-02T06:00:00Z,29.4412,-92.0613,10.0,-9.45,11144222 
WAVCIS,ioos:station:WAVCIS:CSI03:1,2016-05-02T07:00:00Z,29.4412,-92.0613,10.0,-9.81,11144222 
WAVCIS,ioos:station:WAVCIS:CSI03:1,2016-05-02T08:00:00Z,29.4412,-92.0613,10.0,-8.27,11144222 
WAVCIS,ioos:station:WAVCIS:CSI03:1,2016-05-02T09:00:00Z,29.4412,-92.0613,10.0,-8.64,11144222 
WAVCIS,ioos:station:WAVCIS:CSI03:1,2016-05-02T10:00:00Z,29.4412,-92.0613,10.0,-8.56,11144222 
WAVCIS,ioos:station:WAVCIS:CSI03:1,2016-05-02T11:00:00Z,29.4412,-92.0613,10.0,-8.53,11144222 
WAVCIS,ioos:station:WAVCIS:CSI03:1,2016-05-02T12:00:00Z,29.4412,-92.0613,10.0,-8.77,11144222 
WAVCIS,ioos:station:WAVCIS:CSI03:1,2016-05-02T13:00:00Z,29.4412,-92.0613,10.0,-8.36,11144222 
WAVCIS,ioos:station:WAVCIS:CSI03:1,2016-05-02T14:00:00Z,29.4412,-92.0613,10.0,-8.78,11144222 
WAVCIS,ioos:station:WAVCIS:CSI03:1,2016-05-02T15:00:00Z,29.4412,-92.0613,10.0,-9.05,11144222 
WAVCIS,ioos:station:WAVCIS:CSI03:1,2016-05-02T16:00:00Z,29.4412,-92.0613,10.0,-9.14,11144222 
WAVCIS,ioos:station:WAVCIS:CSI03:1,2016-05-02T17:00:00Z,29.4412,-92.0613,10.0,-9.25,11144222 
WAVCIS,ioos:station:WAVCIS:CSI03:1,2016-05-02T18:00:00Z,29.4412,-92.0613,10.0,-8.88,11144222 
WAVCIS,ioos:station:WAVCIS:CSI03:1,2016-05-02T19:00:00Z,29.4412,-92.0613,10.0,-8.86,11144222 
WAVCIS,ioos:station:WAVCIS:CSI03:1,2016-05-02T20:00:00Z,29.4412,-92.0613,10.0,-9.42,11144222 
WAVCIS,ioos:station:WAVCIS:CSI03:1,2016-05-02T21:00:00Z,29.4412,-92.0613,10.0,-9.84,11144222 
WAVCIS,ioos:station:WAVCIS:CSI03:1,2016-05-04T14:00:00Z,29.4412,-92.0613,10.0,-20.84,11144222 
WAVCIS,ioos:station:WAVCIS:CSI03:1,2016-05-04T15:00:00Z,29.4412,-92.0613,10.0,-21.07,11144222 
WAVCIS,ioos:station:WAVCIS:CSI03:1,2016-05-04T16:00:00Z,29.4412,-92.0613,10.0,-21.36,11144222 
WAVCIS,ioos:station:WAVCIS:CSI03:1,2016-05-04T17:00:00Z,29.4412,-92.0613,10.0,-21.24,11144222 
WAVCIS,ioos:station:WAVCIS:CSI03:1,2016-05-04T18:00:00Z,29.4412,-92.0613,10.0,-21.35,11144222 
WAVCIS,ioos:station:WAVCIS:CSI03:1,2016-05-04T19:00:00Z,29.4412,-92.0613,10.0,-20.63,11144222 
WAVCIS,ioos:station:WAVCIS:CSI03:1,2016-05-04T20:00:00Z,29.4412,-92.0613,10.0,-21.05,11144222 
WAVCIS,ioos:station:WAVCIS:CSI03:1,2016-05-04T21:00:00Z,29.4412,-92.0613,10.0,-20.94,11144222 
WAVCIS,ioos:station:WAVCIS:CSI03:1,2016-05-04T22:00:00Z,29.4412,-92.0613,10.0,-21.06,11144222 
WAVCIS,ioos:station:WAVCIS:CSI03:1,2016-05-04T23:00:00Z,29.4412,-92.0613,10.0,-20.93,11144222 
WAVCIS,ioos:station:WAVCIS:CSI03:1,2016-05-05T00:00:00Z,29.4412,-92.0613,10.0,-20.8,11144222 
WAVCIS,ioos:station:WAVCIS:CSI03:1,2016-05-05T01:00:00Z,29.4412,-92.0613,10.0,-20.98,11144222 
WAVCIS,ioos:station:WAVCIS:CSI03:1,2016-05-05T02:00:00Z,29.4412,-92.0613,10.0,-21.19,11144222 
WAVCIS,ioos:station:WAVCIS:CSI03:1,2016-05-05T03:00:00Z,29.4412,-92.0613,10.0,-20.93,11144222 
WAVCIS,ioos:station:WAVCIS:CSI03:1,2016-05-05T04:00:00Z,29.4412,-92.0613,10.0,-20.92,11144222 
WAVCIS,ioos:station:WAVCIS:CSI03:1,2016-05-05T05:00:00Z,29.4412,-92.0613,10.0,-20.94,11144222 
WAVCIS,ioos:station:WAVCIS:CSI03:1,2016-05-05T06:00:00Z,29.4412,-92.0613,10.0,-20.67,11144222 
WAVCIS,ioos:station:WAVCIS:CSI03:1,2016-05-05T07:00:00Z,29.4412,-92.0613,10.0,-20.94,11144222 
WAVCIS,ioos:station:WAVCIS:CSI03:1,2016-05-05T08:00:00Z,29.4412,-92.0613,10.0,-20.88,11144222 
WAVCIS,ioos:station:WAVCIS:CSI03:1,2016-05-05T09:00:00Z,29.4412,-92.0613,10.0,-20.95,11144222 
WAVCIS,ioos:station:WAVCIS:CSI03:1,2016-05-05T10:00:00Z,29.4412,-92.0613,10.0,-20.87,11144222 
WAVCIS,ioos:station:WAVCIS:CSI03:1,2016-05-05T11:00:00Z,29.4412,-92.0613,10.0,-20.6,11144222 
WAVCIS,ioos:station:WAVCIS:CSI03:1,2016-05-05T12:00:00Z,29.4412,-92.0613,10.0,-20.46,11144222 
WAVCIS,ioos:station:WAVCIS:CSI03:1,2016-05-05T13:00:00Z,29.4412,-92.0613,10.0,-20.66,11144222 
WAVCIS,ioos:station:WAVCIS:CSI03:1,2016-05-05T14:00:00Z,29.4412,-92.0613,10.0,-20.46,11144222 
WAVCIS,ioos:station:WAVCIS:CSI03:1,2016-05-05T15:00:00Z,29.4412,-92.0613,10.0,-20.62,11144222 
WAVCIS,ioos:station:WAVCIS:CSI03:1,2016-05-05T16:00:00Z,29.4412,-92.0613,10.0,-20.62,11144222 
WAVCIS,ioos:station:WAVCIS:CSI03:1,2016-05-05T17:00:00Z,29.4412,-92.0613,10.0,-20.67,11144222 
WAVCIS,ioos:station:WAVCIS:CSI03:1,2016-05-05T18:00:00Z,29.4412,-92.0613,10.0,-20.29,11144222 
WAVCIS,ioos:station:WAVCIS:CSI03:1,2016-05-05T19:00:00Z,29.4412,-92.0613,10.0,-20.46,11144222 
WAVCIS,ioos:station:WAVCIS:CSI03:1,2016-05-05T20:00:00Z,29.4412,-92.0613,10.0,-20.47,11144222 
WAVCIS,ioos:station:WAVCIS:CSI03:1,2016-05-05T21:00:00Z,29.4412,-92.0613,10.0,-20.38,11144222 
WAVCIS,ioos:station:WAVCIS:CSI03:1,2016-05-05T22:00:00Z,29.4412,-92.0613,10.0,-20.49,11144222 
WAVCIS,ioos:station:WAVCIS:CSI03:1,2016-05-05T23:00:00Z,29.4412,-92.0613,10.0,-20.24,11144222 
WAVCIS,ioos:station:WAVCIS:CSI03:1,2016-05-06T00:00:00Z,29.4412,-92.0613,10.0,-20.06,11144222 
WAVCIS,ioos:station:WAVCIS:CSI03:1,2016-05-06T01:00:00Z,29.4412,-92.0613,10.0,-20.01,11144222 
WAVCIS,ioos:station:WAVCIS:CSI03:1,2016-05-06T02:00:00Z,29.4412,-92.0613,10.0,-20.04,11144222 
WAVCIS,ioos:station:WAVCIS:CSI03:1,2016-05-06T03:00:00Z,29.4412,-92.0613,10.0,-20.37,11144222 
WAVCIS,ioos:station:WAVCIS:CSI03:1,2016-05-06T04:00:00Z,29.4412,-92.0613,10.0,-20.48,11144222 
WAVCIS,ioos:station:WAVCIS:CSI03:1,2016-05-06T05:00:00Z,29.4412,-92.0613,10.0,-20.54,11144222 
WAVCIS,ioos:station:WAVCIS:CSI03:1,2016-05-06T06:00:00Z,29.4412,-92.0613,10.0,-20.64,11144222 
WAVCIS,ioos:station:WAVCIS:CSI03:1,2016-05-06T07:00:00Z,29.4412,-92.0613,10.0,-20.71,11144222 
WAVCIS,ioos:station:WAVCIS:CSI03:1,2016-05-06T08:00:00Z,29.4412,-92.0613,10.0,-21.14,11144222 
WAVCIS,ioos:station:WAVCIS:CSI03:1,2016-05-06T09:00:00Z,29.4412,-92.0613,10.0,-21.03,11144222 
WAVCIS,ioos:station:WAVCIS:CSI03:1,2016-05-06T10:00:00Z,29.4412,-92.0613,10.0,-20.88,11144222 
WAVCIS,ioos:station:WAVCIS:CSI03:1,2016-05-06T11:00:00Z,29.4412,-92.0613,10.0,-20.93,11144222 
WAVCIS,ioos:station:WAVCIS:CSI03:1,2016-05-06T12:00:00Z,29.4412,-92.0613,10.0,-20.9,11144222 
WAVCIS,ioos:station:WAVCIS:CSI03:1,2016-05-06T13:00:00Z,29.4412,-92.0613,10.0,-20.84,11144222 
WAVCIS,ioos:station:WAVCIS:CSI03:1,2016-05-06T14:00:00Z,29.4412,-92.0613,10.0,-20.55,11144222 
WAVCIS,ioos:station:WAVCIS:CSI03:1,2016-05-06T15:00:00Z,29.4412,-92.0613,10.0,-20.78,11144222 
WAVCIS,ioos:station:WAVCIS:CSI03:1,2016-05-06T16:00:00Z,29.4412,-92.0613,10.0,-20.85,11144222 
WAVCIS,ioos:station:WAVCIS:CSI03:1,2016-05-06T17:00:00Z,29.4412,-92.0613,10.0,-20.89,11144222 
WAVCIS,ioos:station:WAVCIS:CSI03:1,2016-05-06T18:00:00Z,29.4412,-92.0613,10.0,-20.95,11144222 
WAVCIS,ioos:station:WAVCIS:CSI03:1,2016-05-06T19:00:00Z,29.4412,-92.0613,10.0,-21.04,11144222 
WAVCIS,ioos:station:WAVCIS:CSI03:1,2016-05-06T20:00:00Z,29.4412,-92.0613,10.0,-21.14,11144222 
WAVCIS,ioos:station:WAVCIS:CSI03:1,2016-05-06T21:00:00Z,29.4412,-92.0613,10.0,-21.07,11144222 
WAVCIS,ioos:station:WAVCIS:CSI03:1,2016-05-06T22:00:00Z,29.4412,-92.0613,10.0,-20.75,11144222 
WAVCIS,ioos:station:WAVCIS:CSI03:1,2016-05-06T23:00:00Z,29.4412,-92.0613,10.0,-20.68,11144222 
WAVCIS,ioos:station:WAVCIS:CSI03:1,2016-05-07T00:00:00Z,29.4412,-92.0613,10.0,-20.79,11144222 
WAVCIS,ioos:station:WAVCIS:CSI03:1,2016-05-07T01:00:00Z,29.4412,-92.0613,10.0,-20.56,11144222 
WAVCIS,ioos:station:WAVCIS:CSI03:1,2016-05-07T02:00:00Z,29.4412,-92.0613,10.0,-20.75,11144222 
WAVCIS,ioos:station:WAVCIS:CSI03:1,2016-05-07T03:00:00Z,29.4412,-92.0613,10.0,-20.84,11144222 
WAVCIS,ioos:station:WAVCIS:CSI03:1,2016-05-07T04:00:00Z,29.4412,-92.0613,10.0,-20.78,11144222 
WAVCIS,ioos:station:WAVCIS:CSI03:1,2016-05-07T05:00:00Z,29.4412,-92.0613,10.0,-20.92,11144222 
WAVCIS,ioos:station:WAVCIS:CSI03:1,2016-05-07T06:00:00Z,29.4412,-92.0613,10.0,-20.87,11144222 
WAVCIS,ioos:station:WAVCIS:CSI03:1,2016-05-07T07:00:00Z,29.4412,-92.0613,10.0,-20.96,11144222 
WAVCIS,ioos:station:WAVCIS:CSI03:1,2016-05-07T08:00:00Z,29.4412,-92.0613,10.0,-20.96,11144222 
WAVCIS,ioos:station:WAVCIS:CSI03:1,2016-05-07T09:00:00Z,29.4412,-92.0613,10.0,-21.35,11144222 
WAVCIS,ioos:station:WAVCIS:CSI03:1,2016-05-07T10:00:00Z,29.4412,-92.0613,10.0,-21.67,11144222 
WAVCIS,ioos:station:WAVCIS:CSI03:1,2016-05-07T11:00:00Z,29.4412,-92.0613,10.0,-21.64,11144222 
WAVCIS,ioos:station:WAVCIS:CSI03:1,2016-05-07T12:00:00Z,29.4412,-92.0613,10.0,-21.32,11144222 
WAVCIS,ioos:station:WAVCIS:CSI03:1,2016-05-07T13:00:00Z,29.4412,-92.0613,10.0,-21.38,11144222 
WAVCIS,ioos:station:WAVCIS:CSI03:1,2016-05-07T14:00:00Z,29.4412,-92.0613,10.0,-21.22,11144222 
WAVCIS,ioos:station:WAVCIS:CSI03:1,2016-05-07T15:00:00Z,29.4412,-92.0613,10.0,-21.31,11144222 
WAVCIS,ioos:station:WAVCIS:CSI03:1,2016-05-07T16:00:00Z,29.4412,-92.0613,10.0,-21.53,11144222 
WAVCIS,ioos:station:WAVCIS:CSI03:1,2016-05-07T17:00:00Z,29.4412,-92.0613,10.0,-21.61,11144222 
WAVCIS,ioos:station:WAVCIS:CSI03:1,2016-05-07T18:00:00Z,29.4412,-92.0613,10.0,-21.57,11144222 
WAVCIS,ioos:station:WAVCIS:CSI03:1,2016-05-07T19:00:00Z,29.4412,-92.0613,10.0,-21.71,11144222 
WAVCIS,ioos:station:WAVCIS:CSI03:1,2016-05-07T20:00:00Z,29.4412,-92.0613,10.0,-21.88,11144222 
WAVCIS,ioos:station:WAVCIS:CSI03:1,2016-05-07T21:00:00Z,29.4412,-92.0613,10.0,-21.64,11144222 
WAVCIS,ioos:station:WAVCIS:CSI03:1,2016-05-07T22:00:00Z,29.4412,-92.0613,10.0,-21.31,11144222 
WAVCIS,ioos:station:WAVCIS:CSI03:1,2016-05-07T23:00:00Z,29.4412,-92.0613,10.0,-21.68,11144222 
WAVCIS,ioos:station:WAVCIS:CSI03:1,2016-05-08T00:00:00Z,29.4412,-92.0613,10.0,-21.31,11144222 
WAVCIS,ioos:station:WAVCIS:CSI03:1,2016-05-08T01:00:00Z,29.4412,-92.0613,10.0,-21.12,11144222 
WAVCIS,ioos:station:WAVCIS:CSI03:1,2016-05-08T02:00:00Z,29.4412,-92.0613,10.0,-21.08,11144222 
WAVCIS,ioos:station:WAVCIS:CSI03:1,2016-05-08T03:00:00Z,29.4412,-92.0613,10.0,-20.83,11144222 
WAVCIS,ioos:station:WAVCIS:CSI03:1,2016-05-08T04:00:00Z,29.4412,-92.0613,10.0,-20.12,11144222 
WAVCIS,ioos:station:WAVCIS:CSI03:1,2016-05-08T05:00:00Z,29.4412,-92.0613,10.0,-19.88,11144222 
WAVCIS,ioos:station:WAVCIS:CSI03:1,2016-05-08T06:00:00Z,29.4412,-92.0613,10.0,-19.52,11144222 
WAVCIS,ioos:station:WAVCIS:CSI03:1,2016-05-08T07:00:00Z,29.4412,-92.0613,10.0,-19.85,11144222 
WAVCIS,ioos:station:WAVCIS:CSI03:1,2016-05-08T08:00:00Z,29.4412,-92.0613,10.0,-20.48,11144222 
WAVCIS,ioos:station:WAVCIS:CSI03:1,2016-05-08T09:00:00Z,29.4412,-92.0613,10.0,-21.16,11144222 
WAVCIS,ioos:station:WAVCIS:CSI03:1,2016-05-08T10:00:00Z,29.4412,-92.0613,10.0,-21.02,11144222 
WAVCIS,ioos:station:WAVCIS:CSI03:1,2016-05-08T11:00:00Z,29.4412,-92.0613,10.0,-21.45,11144222 
WAVCIS,ioos:station:WAVCIS:CSI03:1,2016-05-08T12:00:00Z,29.4412,-92.0613,10.0,-20.63,11144222 
WAVCIS,ioos:station:WAVCIS:CSI03:1,2016-05-08T13:00:00Z,29.4412,-92.0613,10.0,-20.56,11144222 
WAVCIS,ioos:station:WAVCIS:CSI03:1,2016-05-08T14:00:00Z,29.4412,-92.0613,10.0,-20.21,11144222 
WAVCIS,ioos:station:WAVCIS:CSI03:1,2016-05-08T15:00:00Z,29.4412,-92.0613,10.0,-19.96,11144222 
WAVCIS,ioos:station:WAVCIS:CSI03:1,2016-05-08T16:00:00Z,29.4412,-92.0613,10.0,-20.21,11144222 
WAVCIS,ioos:station:WAVCIS:CSI03:1,2016-05-08T17:00:00Z,29.4412,-92.0613,10.0,-19.81,11144222 
WAVCIS,ioos:station:WAVCIS:CSI03:1,2016-05-08T18:00:00Z,29.4412,-92.0613,10.0,-19.53,11144222 
WAVCIS,ioos:station:WAVCIS:CSI03:1,2016-05-08T19:00:00Z,29.4412,-92.0613,10.0,-19.55,11144222 
WAVCIS,ioos:station:WAVCIS:CSI03:1,2016-05-08T20:00:00Z,29.4412,-92.0613,10.0,-19.34,11144222 
WAVCIS,ioos:station:WAVCIS:CSI03:1,2016-05-08T21:00:00Z,29.4412,-92.0613,10.0,-19.3,11144222 
WAVCIS,ioos:station:WAVCIS:CSI03:1,2016-05-08T22:00:00Z,29.4412,-92.0613,10.0,-19.13,11144222 
WAVCIS,ioos:station:WAVCIS:CSI03:1,2016-05-08T23:00:00Z,29.4412,-92.0613,10.0,-19.09,11144222 
WAVCIS,ioos:station:WAVCIS:CSI03:1,2016-05-09T00:00:00Z,29.4412,-92.0613,10.0,-18.8,11144222 
WAVCIS,ioos:station:WAVCIS:CSI03:1,2016-05-09T01:00:00Z,29.4412,-92.0613,10.0,-19.06,11144222 
WAVCIS,ioos:station:WAVCIS:CSI03:1,2016-05-09T02:00:00Z,29.4412,-92.0613,10.0,-19.09,11144222 
WAVCIS,ioos:station:WAVCIS:CSI03:1,2016-05-09T03:00:00Z,29.4412,-92.0613,10.0,-18.95,11144222 
WAVCIS,ioos:station:WAVCIS:CSI03:1,2016-05-09T04:00:00Z,29.4412,-92.0613,10.0,-18.88,11144222 
WAVCIS,ioos:station:WAVCIS:CSI03:1,2016-05-09T05:00:00Z,29.4412,-92.0613,10.0,-18.84,11144222 
WAVCIS,ioos:station:WAVCIS:CSI03:1,2016-05-09T06:00:00Z,29.4412,-92.0613,10.0,-19.35,11144222 
WAVCIS,ioos:station:WAVCIS:CSI03:1,2016-05-09T07:00:00Z,29.4412,-92.0613,10.0,-19.48,11144222 
WAVCIS,ioos:station:WAVCIS:CSI03:1,2016-05-09T08:00:00Z,29.4412,-92.0613,10.0,-19.8,11144222 
WAVCIS,ioos:station:WAVCIS:CSI03:1,2016-05-09T09:00:00Z,29.4412,-92.0613,10.0,-20.18,11144222 
WAVCIS,ioos:station:WAVCIS:CSI03:1,2016-05-09T10:00:00Z,29.4412,-92.0613,10.0,-20.6,11144222 
WAVCIS,ioos:station:WAVCIS:CSI03:1,2016-05-09T11:00:00Z,29.4412,-92.0613,10.0,-20.93,11144222 
WAVCIS,ioos:station:WAVCIS:CSI03:1,2016-05-09T12:00:00Z,29.4412,-92.0613,10.0,-21.13,11144222 
WAVCIS,ioos:station:WAVCIS:CSI03:1,2016-05-09T13:00:00Z,29.4412,-92.0613,10.0,-21.19,11144222 
WAVCIS,ioos:station:WAVCIS:CSI03:1,2016-05-09T14:00:00Z,29.4412,-92.0613,10.0,-20.99,11144222 
WAVCIS,ioos:station:WAVCIS:CSI03:1,2016-05-09T15:00:00Z,29.4412,-92.0613,10.0,-21.01,11144222 
WAVCIS,ioos:station:WAVCIS:CSI03:1,2016-05-09T16:00:00Z,29.4412,-92.0613,10.0,-21.04,11144222 
WAVCIS,ioos:station:WAVCIS:CSI03:1,2016-05-09T17:00:00Z,29.4412,-92.0613,10.0,-20.99,11144222 
WAVCIS,ioos:station:WAVCIS:CSI03:1,2016-05-09T18:00:00Z,29.4412,-92.0613,10.0,-21.03,11144222 
WAVCIS,ioos:station:WAVCIS:CSI03:1,2016-05-09T19:00:00Z,29.4412,-92.0613,10.0,-21.01,11144222 
WAVCIS,ioos:station:WAVCIS:CSI03:1,2016-05-09T20:00:00Z,29.4412,-92.0613,10.0,-21.06,11144222 
WAVCIS,ioos:station:WAVCIS:CSI03:1,2016-05-09T21:00:00Z,29.4412,-92.0613,10.0,-20.86,11144222 
WAVCIS,ioos:station:WAVCIS:CSI03:1,2016-05-09T22:00:00Z,29.4412,-92.0613,10.0,-21.18,11144222 
WAVCIS,ioos:station:WAVCIS:CSI03:1,2016-05-09T23:00:00Z,29.4412,-92.0613,10.0,-20.45,11144222 
WAVCIS,ioos:station:WAVCIS:CSI03:1,2016-05-10T00:00:00Z,29.4412,-92.0613,10.0,-20.23,11144222 
WAVCIS,ioos:station:WAVCIS:CSI03:1,2016-05-10T01:00:00Z,29.4412,-92.0613,10.0,-20.63,11144222 
WAVCIS,ioos:station:WAVCIS:CSI03:1,2016-05-10T02:00:00Z,29.4412,-92.0613,10.0,-20.92,11144222 
WAVCIS,ioos:station:WAVCIS:CSI03:1,2016-05-10T03:00:00Z,29.4412,-92.0613,10.0,-21.12,11144222 
WAVCIS,ioos:station:WAVCIS:CSI03:1,2016-05-10T04:00:00Z,29.4412,-92.0613,10.0,-20.82,11144222 
WAVCIS,ioos:station:WAVCIS:CSI03:1,2016-05-10T05:00:00Z,29.4412,-92.0613,10.0,-21.01,11144222 
WAVCIS,ioos:station:WAVCIS:CSI03:1,2016-05-10T06:00:00Z,29.4412,-92.0613,10.0,-21.04,11144222 
WAVCIS,ioos:station:WAVCIS:CSI03:1,2016-05-10T07:00:00Z,29.4412,-92.0613,10.0,-21.05,11144222 
WAVCIS,ioos:station:WAVCIS:CSI03:1,2016-05-10T08:00:00Z,29.4412,-92.0613,10.0,-21.06,11144222 
WAVCIS,ioos:station:WAVCIS:CSI03:1,2016-05-10T09:00:00Z,29.4412,-92.0613,10.0,-19.55,11144222 
WAVCIS,ioos:station:WAVCIS:CSI03:1,2016-05-10T10:00:00Z,29.4412,-92.0613,10.0,-18.51,11144222 
WAVCIS,ioos:station:WAVCIS:CSI03:1,2016-05-10T11:00:00Z,29.4412,-92.0613,10.0,-18.94,11144222 
WAVCIS,ioos:station:WAVCIS:CSI03:1,2016-05-10T12:00:00Z,29.4412,-92.0613,10.0,-17.89,11144222 
WAVCIS,ioos:station:WAVCIS:CSI03:1,2016-05-10T13:00:00Z,29.4412,-92.0613,10.0,-18.85,11144222 
WAVCIS,ioos:station:WAVCIS:CSI03:1,2016-05-10T14:00:00Z,29.4412,-92.0613,10.0,-19.37,11144222 
WAVCIS,ioos:station:WAVCIS:CSI03:1,2016-05-10T15:00:00Z,29.4412,-92.0613,10.0,-18.71,11144222 
WAVCIS,ioos:station:WAVCIS:CSI03:1,2016-05-10T16:00:00Z,29.4412,-92.0613,10.0,-18.72,11144222 
WAVCIS,ioos:station:WAVCIS:CSI03:1,2016-05-10T17:00:00Z,29.4412,-92.0613,10.0,-18.47,11144222 
WAVCIS,ioos:station:WAVCIS:CSI03:1,2016-05-10T18:00:00Z,29.4412,-92.0613,10.0,-18.8,11144222 
WAVCIS,ioos:station:WAVCIS:CSI03:1,2016-05-10T19:00:00Z,29.4412,-92.0613,10.0,-18.69,11144222 
WAVCIS,ioos:station:WAVCIS:CSI03:1,2016-05-10T20:00:00Z,29.4412,-92.0613,10.0,-18.84,11144222 
WAVCIS,ioos:station:WAVCIS:CSI03:1,2016-05-10T21:00:00Z,29.4412,-92.0613,10.0,-18.58,11144222 
WAVCIS,ioos:station:WAVCIS:CSI03:1,2016-05-10T22:00:00Z,29.4412,-92.0613,10.0,-18.65,11144222 
WAVCIS,ioos:station:WAVCIS:CSI03:1,2016-05-10T23:00:00Z,29.4412,-92.0613,10.0,-18.62,11144222 
WAVCIS,ioos:station:WAVCIS:CSI03:1,2016-05-11T00:00:00Z,29.4412,-92.0613,10.0,-18.42,11144222 
WAVCIS,ioos:station:WAVCIS:CSI03:1,2016-05-11T01:00:00Z,29.4412,-92.0613,10.0,-17.97,11144222 
WAVCIS,ioos:station:WAVCIS:CSI03:1,2016-05-11T02:00:00Z,29.4412,-92.0613,10.0,-18.36,11144222 
WAVCIS,ioos:station:WAVCIS:CSI03:1,2016-05-11T03:00:00Z,29.4412,-92.0613,10.0,-17.99,11144222 
WAVCIS,ioos:station:WAVCIS:CSI03:1,2016-05-11T04:00:00Z,29.4412,-92.0613,10.0,-17.2,11144222 
WAVCIS,ioos:station:WAVCIS:CSI03:1,2016-05-11T05:00:00Z,29.4412,-92.0613,10.0,-17.15,11144222 
WAVCIS,ioos:station:WAVCIS:CSI03:1,2016-05-11T06:00:00Z,29.4412,-92.0613,10.0,-17.07,11144222 
WAVCIS,ioos:station:WAVCIS:CSI03:1,2016-05-11T07:00:00Z,29.4412,-92.0613,10.0,-17.16,11144222 
WAVCIS,ioos:station:WAVCIS:CSI03:1,2016-05-11T08:00:00Z,29.4412,-92.0613,10.0,-16.67,11144222 
WAVCIS,ioos:station:WAVCIS:CSI03:1,2016-05-11T09:00:00Z,29.4412,-92.0613,10.0,-17.25,11144222 
WAVCIS,ioos:station:WAVCIS:CSI03:1,2016-05-11T10:00:00Z,29.4412,-92.0613,10.0,-16.71,11144222 
WAVCIS,ioos:station:WAVCIS:CSI03:1,2016-05-11T11:00:00Z,29.4412,-92.0613,10.0,-16.01,11144222 
WAVCIS,ioos:station:WAVCIS:CSI03:1,2016-05-11T12:00:00Z,29.4412,-92.0613,10.0,-15.71,11144222 
WAVCIS,ioos:station:WAVCIS:CSI03:1,2016-05-11T13:00:00Z,29.4412,-92.0613,10.0,-16.38,11144222 
WAVCIS,ioos:station:WAVCIS:CSI03:1,2016-05-11T14:00:00Z,29.4412,-92.0613,10.0,-16.99,11144222 
WAVCIS,ioos:station:WAVCIS:CSI03:1,2016-05-11T15:00:00Z,29.4412,-92.0613,10.0,-17.72,11144222 
WAVCIS,ioos:station:WAVCIS:CSI03:1,2016-05-11T16:00:00Z,29.4412,-92.0613,10.0,-18.39,11144222 
WAVCIS,ioos:station:WAVCIS:CSI03:1,2016-05-11T17:00:00Z,29.4412,-92.0613,10.0,-18.97,11144222 
WAVCIS,ioos:station:WAVCIS:CSI03:1,2016-05-11T18:00:00Z,29.4412,-92.0613,10.0,-18.58,11144222 
WAVCIS,ioos:station:WAVCIS:CSI03:1,2016-05-11T19:00:00Z,29.4412,-92.0613,10.0,-18.44,11144222 
WAVCIS,ioos:station:WAVCIS:CSI03:1,2016-05-11T20:00:00Z,29.4412,-92.0613,10.0,-17.67,11144222 
WAVCIS,ioos:station:WAVCIS:CSI03:1,2016-05-11T21:00:00Z,29.4412,-92.0613,10.0,-17.23,11144222 
WAVCIS,ioos:station:WAVCIS:CSI03:1,2016-05-11T22:00:00Z,29.4412,-92.0613,10.0,-17.12,11144222 
WAVCIS,ioos:station:WAVCIS:CSI03:1,2016-05-11T23:00:00Z,29.4412,-92.0613,10.0,-16.46,11144222 
WAVCIS,ioos:station:WAVCIS:CSI03:1,2016-05-12T00:00:00Z,29.4412,-92.0613,10.0,-16.67,11144222 
WAVCIS,ioos:station:WAVCIS:CSI03:1,2016-05-12T01:00:00Z,29.4412,-92.0613,10.0,-17.08,11144222 
WAVCIS,ioos:station:WAVCIS:CSI03:1,2016-05-12T02:00:00Z,29.4412,-92.0613,10.0,-16.75,11144222 
WAVCIS,ioos:station:WAVCIS:CSI03:1,2016-05-12T03:00:00Z,29.4412,-92.0613,10.0,-15.98,11144222 
WAVCIS,ioos:station:WAVCIS:CSI03:1,2016-05-12T04:00:00Z,29.4412,-92.0613,10.0,-16.02,11144222 
WAVCIS,ioos:station:WAVCIS:CSI03:1,2016-05-12T05:00:00Z,29.4412,-92.0613,10.0,-15.95,11144222 
WAVCIS,ioos:station:WAVCIS:CSI03:1,2016-05-12T06:00:00Z,29.4412,-92.0613,10.0,-18.39,11144222 
WAVCIS,ioos:station:WAVCIS:CSI03:1,2016-05-12T07:00:00Z,29.4412,-92.0613,10.0,-18.81,11144222 
WAVCIS,ioos:station:WAVCIS:CSI03:1,2016-05-12T08:00:00Z,29.4412,-92.0613,10.0,-19.17,11144222 
WAVCIS,ioos:station:WAVCIS:CSI03:1,2016-05-12T09:00:00Z,29.4412,-92.0613,10.0,-19.15,11144222 
WAVCIS,ioos:station:WAVCIS:CSI03:1,2016-05-12T10:00:00Z,29.4412,-92.0613,10.0,-18.01,11144222 
WAVCIS,ioos:station:WAVCIS:CSI03:1,2016-05-12T11:00:00Z,29.4412,-92.0613,10.0,-18.27,11144222 
WAVCIS,ioos:station:WAVCIS:CSI03:1,2016-05-12T12:00:00Z,29.4412,-92.0613,10.0,-18.35,11144222 
WAVCIS,ioos:station:WAVCIS:CSI03:1,2016-05-12T13:00:00Z,29.4412,-92.0613,10.0,-16.65,11144222 
WAVCIS,ioos:station:WAVCIS:CSI03:1,2016-05-12T14:00:00Z,29.4412,-92.0613,10.0,-17.54,11144222 
WAVCIS,ioos:station:WAVCIS:CSI03:1,2016-05-12T15:00:00Z,29.4412,-92.0613,10.0,-17.39,11144222 
WAVCIS,ioos:station:WAVCIS:CSI03:1,2016-05-12T16:00:00Z,29.4412,-92.0613,10.0,-18.31,11144222 
WAVCIS,ioos:station:WAVCIS:CSI03:1,2016-05-12T17:00:00Z,29.4412,-92.0613,10.0,-18.35,11144222 
WAVCIS,ioos:station:WAVCIS:CSI03:1,2016-05-12T18:00:00Z,29.4412,-92.0613,10.0,-19.12,11144222 
WAVCIS,ioos:station:WAVCIS:CSI03:1,2016-05-12T19:00:00Z,29.4412,-92.0613,10.0,-19.43,11144222 
WAVCIS,ioos:station:WAVCIS:CSI03:1,2016-05-12T20:00:00Z,29.4412,-92.0613,10.0,-19.52,11144222 
WAVCIS,ioos:station:WAVCIS:CSI03:1,2016-05-12T21:00:00Z,29.4412,-92.0613,10.0,-19.29,11144222 
WAVCIS,ioos:station:WAVCIS:CSI03:1,2016-05-12T22:00:00Z,29.4412,-92.0613,10.0,-20.03,11144222 
WAVCIS,ioos:station:WAVCIS:CSI03:1,2016-05-12T23:00:00Z,29.4412,-92.0613,10.0,-20.32,11144222 
WAVCIS,ioos:station:WAVCIS:CSI03:1,2016-05-13T00:00:00Z,29.4412,-92.0613,10.0,-20.7,11144222 
WAVCIS,ioos:station:WAVCIS:CSI03:1,2016-05-13T01:00:00Z,29.4412,-92.0613,10.0,-20.47,11144222 
WAVCIS,ioos:station:WAVCIS:CSI03:1,2016-05-13T02:00:00Z,29.4412,-92.0613,10.0,-20.39,11144222 
WAVCIS,ioos:station:WAVCIS:CSI03:1,2016-05-13T03:00:00Z,29.4412,-92.0613,10.0,-20.88,11144222 